Showing default

NAHLA, 66764

Orbit data source: Space-Track

NAHLA, 66764 is a payload satellite owned by Aerospacelab (BE) in SSO that was launched on Fri, 28 Nov 2025 UTC via an FALCON 9 launch vehicle from the Air Force Western Test Range (AFWTR). Payload-class satellites include a variety of spacecraft equipped with specific instruments for various scientific and technological missions. These include communications satellites like Starlink; space stations such as the ISS; scientific satellites like the Hubble; Earth observation satellites from companies like Planet Labs, Umbra, and HawkEye 360; GPS; miniature CubeSats for education and research; and military/defense satellites.

Loading next visibility...
Identifier
66764, 2025-276DC
Orbit
SSO
Country
Flag of BEBE / BEL
Related business
Manufacturer
Aerospacelab
Mission
Operational Commercial Imaging
Bus & Motor
VSP-150, 0
Mass
~200 kg wet, ~200 kg dry
Launch date (UTC)
2025-11-28 (9 months ago)
Launch vehicle
FALCON 9
Launch site
Air Force Western Test Range (AFWTR)
Object type
Payload
Rocket body
Debris
Shape & HBR
Box + 2 Pan, 1.0 m
Radar Cross Section
0.969 m², Large (>1 m²)

Expand to show TLE details & history
Last TLE update: 8 hours ago

TLE from 8 hours ago
0 NAHLA
1 66764U 25276DC  26238.53021356  .00002573  00000-0  12548-3 0  9997
2 66764  97.4155 310.7051 0004511  89.9564 270.2188 15.19198977 41090
Epoch: 2026-08-26T12:43Z
TLE epoch observation values (Epoch: 2026-08-26T12:43:30.451Z)
Latitude
0.00001°
Longitude
145.04633°
Altitude
511.339 km
Speed
7.608 km/s
True Right ascension
20h 42m 49s
True Declination
0° 00' 00"
Sunlit
Object was in full shadow at epoch
Visualization orbit readout
Latitude
Unknown
Longitude
Unknown
Altitude
Unknown
Speed
Unknown
Apparent Right ascension
Unknown
Apparent Declination
Unknown
Sunlit
N/A
Visualization observer readout
Local Sidereal Time
11:45:44
Azimuth
Unknown
Elevation
Unknown
Doppler factor
Unknown
Orbital elements
Apogee altitude
508.333 km
Perigee altitude
502.122 km
Semi-major axis
6,883.365 km
Eccentricity
0.00045
Inclination
97.4155°
RAAN
310.7051°
Arg. of periapsis
89.9564°
True anomaly
270.16711°
Mean anomaly
270.2188°
Eccentric anomaly
270.19295°
Mean motion
3.80051 °/min
Orbital period
94.72 mins
BSTAR
0.00012548
Loading maneuver chart data...
Computing Atmospheric mass density...
Loading historical data...
Loading historical data...
Loading historical data...
Loading historical data...
Loading historical data...
Loading historical data...
Loading historical data...

Documentation

Showing up to 5 results
|